Voltar ao catálogo

GLOBALSTAR M087

AtivoComunicaçõesLEO
NORAD 52888·PAYLOAD·🇺🇸 United States

Lançado Jun 19, 2022 de Cape Canaveral Space Force Station

Loading…

Próximas Passagens (próximas 24 horas)

TLE

AtualizadoSource: Space-Track

Época: Sep 14, 2026, 22:58 UTC

1 52888U 22064A   26257.95730118 -.00000072  00000-0  17470-3 0  9993
2 52888  51.9987 149.1541 0000718  91.1183 268.9766 12.62262972202474

Acompanhe GLOBALSTAR M087 em tempo real com AllMySat

Download on the App Store